• In Hungary
  • List of Countries
  • For 7 days
  • Water Temperature
  • Satellite Maps
  • Weather Map
  • News
  • Weather Widgets
  • user-avatar
    Login

    Hourly Weather Kaprun

    Today, 18 October, Wednesday

    Time Temperature Precipitation Wind Pressure Humidity
    00:00 +3°C° 0 mm 2 mps 599 mmHg 64%
    01:00 +3°C° 0 mm 2 mps 599 mmHg 59%
    02:00 +3°C° 0 mm 2 mps 599 mmHg 58%
    03:00 +3°C° 0 mm 2 mps 598 mmHg 57%
    04:00 +4°C° 0 mm 1 mps 598 mmHg 56%
    05:00 +3°C° 0 mm 1 mps 598 mmHg 56%
    06:00 +3°C° 0 mm 1 mps 598 mmHg 55%
    07:00 +3°C° 0 mm 1 mps 598 mmHg 55%
    08:00 +6°C° 0 mm 1 mps 599 mmHg 49%
    09:00 +8°C° 0 mm 1 mps 600 mmHg 43%
    10:00 +11°C° 0 mm 1 mps 601 mmHg 37%
    11:00 +12°C° 0 mm 1 mps 601 mmHg 36%
    12:00 +13°C° 0 mm 1 mps 601 mmHg 35%
    13:00 +13°C° 0 mm 1 mps 601 mmHg 34%
    14:00 +12°C° 0 mm 1 mps 600 mmHg 41%
    15:00 +11°C° 0 mm 1 mps 600 mmHg 48%
    16:00 +10°C° 0 mm 1 mps 599 mmHg 55%
    17:00 +8°C° 0 mm 1 mps 598 mmHg 62%
    18:00 +6°C° 0 mm 1 mps 597 mmHg 70%
    19:00 +3°C° 0 mm 1 mps 596 mmHg 78%
    20:00 +3°C° 0 mm 1 mps 596 mmHg 75%
    21:00 +3°C° 0 mm 1 mps 596 mmHg 72%
    22:00 +3°C° 0 mm 1 mps 596 mmHg 70%
    23:00 +2°C° 0 mm 1 mps 596 mmHg 68%

    Tomorrow, 19 October, Thursday

    Time Temperature Precipitation Wind Pressure Humidity
    00:00 +2°C° 0 mm 1 mps 596 mmHg 67%
    01:00 +2°C° 0 mm 1 mps 596 mmHg 66%
    02:00 +2°C° 0 mm 1 mps 596 mmHg 65%
    03:00 +2°C° 0 mm 1 mps 596 mmHg 64%
    04:00 +1°C° 0 mm 1 mps 596 mmHg 63%
    05:00 +1°C° 0 mm 1 mps 596 mmHg 61%
    06:00 +1°C° 0 mm 1 mps 596 mmHg 59%
    07:00 +1°C° 0 mm 1 mps 596 mmHg 58%
    08:00 +4°C° 0 mm 1 mps 597 mmHg 51%
    09:00 +7°C° 0 mm 1 mps 598 mmHg 44%
    10:00 +10°C° 0 mm 1 mps 599 mmHg 37%
    11:00 +11°C° 0 mm 1 mps 599 mmHg 36%
    12:00 +12°C° 0 mm 1 mps 600 mmHg 35%
    13:00 +12°C° 0 mm 1 mps 600 mmHg 34%
    14:00 +11°C° 0 mm 1 mps 599 mmHg 41%
    15:00 +11°C° 0 mm 1 mps 599 mmHg 48%
    16:00 +10°C° 0 mm 1 mps 598 mmHg 55%
    17:00 +8°C° 0 mm 1 mps 597 mmHg 61%
    18:00 +5°C° 0 mm 1 mps 597 mmHg 68%
    19:00 +3°C° 0 mm 1 mps 596 mmHg 74%
    20:00 +3°C° 0 mm 1 mps 596 mmHg 74%
    21:00 +2°C° 0 mm 1 mps 596 mmHg 73%
    22:00 +2°C° 0 mm 1 mps 596 mmHg 72%
    23:00 +2°C° 0 mm 1 mps 596 mmHg 72%

    Day after tomorrow, 20 October, Friday

    Time Temperature Precipitation Wind Pressure Humidity
    00:00 +2°C° 0 mm 1 mps 595 mmHg 73%
    01:00 +1°C° 0 mm 2 mps 595 mmHg 73%
    02:00 +2°C° 0 mm 1 mps 595 mmHg 73%
    03:00 +2°C° 0 mm 1 mps 595 mmHg 74%
    04:00 +1°C° 0 mm 1 mps 595 mmHg 74%
    05:00 +1°C° 0 mm 1 mps 595 mmHg 74%
    06:00 +1°C° 0 mm 1 mps 595 mmHg 74%
    07:00 +1°C° 0 mm 1 mps 595 mmHg 74%
    08:00 +4°C° 0 mm 1 mps 597 mmHg 67%
    09:00 +7°C° 0 mm 1 mps 598 mmHg 59%
    10:00 +10°C° 0 mm 1 mps 599 mmHg 51%
    11:00 +10°C° 0 mm 1 mps 600 mmHg 50%
    12:00 +11°C° 0 mm 1 mps 600 mmHg 48%
    13:00 +12°C° 0 mm 2 mps 600 mmHg 46%
    14:00 +11°C° 0 mm 1 mps 600 mmHg 53%
    15:00 +10°C° 0 mm 1 mps 599 mmHg 60%
    16:00 +9°C° 0 mm 1 mps 599 mmHg 67%
    17:00 +7°C° 0 mm 1 mps 598 mmHg 74%
    18:00 +5°C° 0 mm 1 mps 598 mmHg 82%
    19:00 +2°C° 0 mm 0 mps 597 mmHg 89%
    20:00 +3°C° 0 mm 1 mps 597 mmHg 88%
    21:00 +3°C° 0 mm 1 mps 598 mmHg 86%
    22:00 +3°C° 0 mm 1 mps 598 mmHg 85%
    23:00 +3°C° 0 mm 1 mps 598 mmHg 83%

    21 October, Saturday

    Time Temperature Precipitation Wind Pressure Humidity
    00:00 +3°C° 0 mm 1 mps 598 mmHg 81%
    01:00 +3°C° 0 mm 1 mps 598 mmHg 80%
    02:00 +2°C° 0 mm 1 mps 598 mmHg 79%
    03:00 +2°C° 0 mm 1 mps 597 mmHg 78%
    04:00 +2°C° 0 mm 1 mps 597 mmHg 77%
    05:00 +2°C° 0 mm 1 mps 597 mmHg 76%
    06:00 +2°C° 0 mm 1 mps 597 mmHg 75%
    07:00 +2°C° 0 mm 1 mps 597 mmHg 74%
    08:00 +4°C° 0 mm 1 mps 599 mmHg 68%
    09:00 +7°C° 0 mm 1 mps 600 mmHg 61%
    10:00 +8°C° 0 mm 0 mps 601 mmHg 55%
    11:00 +9°C° 0 mm 0 mps 601 mmHg 52%
    12:00 +11°C° 0 mm 1 mps 601 mmHg 50%
    13:00 +11°C° 0 mm 1 mps 601 mmHg 48%
    14:00 +11°C° 0 mm 1 mps 601 mmHg 53%
    15:00 +10°C° 0 mm 1 mps 600 mmHg 59%
    16:00 +10°C° 0 mm 1 mps 600 mmHg 64%
    17:00 +8°C° 0 mm 1 mps 599 mmHg 71%
    18:00 +6°C° 0 mm 1 mps 598 mmHg 78%
    19:00 +4°C° 0 mm 1 mps 597 mmHg 85%
    20:00 +4°C° 0 mm 1 mps 597 mmHg 84%
    21:00 +4°C° 0 mm 1 mps 597 mmHg 84%
    22:00 +4°C° 0 mm 1 mps 598 mmHg 84%
    23:00 +3°C° 0 mm 1 mps 597 mmHg 85%

    22 October, Sunday

    Time Temperature Precipitation Wind Pressure Humidity
    00:00 +3°C° 0 mm 1 mps 597 mmHg 86%
    01:00 +3°C° 0 mm 1 mps 597 mmHg 87%
    02:00 +2°C° 0 mm 1 mps 597 mmHg 88%
    03:00 +2°C° 0 mm 1 mps 596 mmHg 90%
    04:00 0°C° 0 mm 0 mps 596 mmHg 92%
    05:00 0°C° 0.3 mm 0 mps 596 mmHg 93%
    06:00 +1°C° 0.3 mm 1 mps 596 mmHg 94%
    07:00 +1°C° 0.3 mm 1 mps 596 mmHg 94%
    08:00 +2°C° 1.2 mm 1 mps 596 mmHg 93%
    09:00 +3°C° 1.2 mm 1 mps 596 mmHg 92%
    10:00 +3°C° 1.2 mm 1 mps 597 mmHg 91%
    11:00 +2°C° 1.8 mm 2 mps 596 mmHg 92%
    12:00 +1°C° 1.8 mm 2 mps 596 mmHg 94%
    13:00 +1°C° 1.8 mm 2 mps 595 mmHg 95%
    14:00 -1°C° 2.9 mm 2 mps 595 mmHg 95%
    15:00 -1°C° 2.9 mm 2 mps 594 mmHg 95%
    16:00 -2°C° 2.9 mm 3 mps 594 mmHg 95%
    17:00 -2°C° 1.7 mm 2 mps 594 mmHg 95%
    18:00 -3°C° 1.7 mm 2 mps 594 mmHg 96%
    19:00 -3°C° 1.7 mm 2 mps 594 mmHg 96%
    20:00 -3°C° 0.7 mm 2 mps 594 mmHg 96%
    21:00 -4°C° 0.7 mm 2 mps 594 mmHg 96%
    22:00 -4°C° 0.7 mm 2 mps 594 mmHg 96%
    23:00 -4°C° 0.3 mm 2 mps 594 mmHg 96%

    23 October, Monday

    Time Temperature Precipitation Wind Pressure Humidity
    00:00 -4°C° 0.3 mm 2 mps 594 mmHg 96%
    01:00 -5°C° 0.3 mm 3 mps 594 mmHg 96%
    02:00 -5°C° 0.3 mm 3 mps 594 mmHg 96%
    03:00 -6°C° 0.3 mm 3 mps 594 mmHg 96%
    04:00 -6°C° 0.3 mm 3 mps 594 mmHg 96%
    05:00 -6°C° 0.3 mm 3 mps 595 mmHg 96%
    06:00 -6°C° 0.3 mm 3 mps 595 mmHg 95%
    07:00 -6°C° 0.3 mm 3 mps 595 mmHg 95%
    08:00 -5°C° 0.3 mm 3 mps 596 mmHg 94%
    09:00 -5°C° 0.3 mm 3 mps 596 mmHg 92%
    10:00 -4°C° 0.3 mm 3 mps 596 mmHg 90%
    11:00 -4°C° 0.2 mm 3 mps 596 mmHg 89%
    12:00 -2°C° 0.2 mm 3 mps 597 mmHg 89%
    13:00 -2°C° 0.2 mm 3 mps 597 mmHg 88%
    14:00 -2°C° 0.1 mm 3 mps 597 mmHg 89%
    15:00 -4°C° 0.1 mm 3 mps 597 mmHg 90%
    16:00 -4°C° 0.1 mm 3 mps 597 mmHg 90%
    17:00 -5°C° 0.1 mm 3 mps 597 mmHg 92%
    18:00 -4°C° 0.1 mm 2 mps 597 mmHg 93%
    19:00 -5°C° 0.1 mm 2 mps 598 mmHg 95%
    20:00 -5°C° 0 mm 2 mps 598 mmHg 95%
    21:00 -5°C° 0 mm 2 mps 598 mmHg 95%
    22:00 -6°C° 0 mm 2 mps 598 mmHg 95%
    23:00 -6°C° 0 mm 2 mps 598 mmHg 94%
    Show more